AAL256 KDCA-KSYR

Flight info

Callsign AAL256
Flight time 0h 47m
Altitude 35000
Route HORTO4 JERES Q221 VALLO Q227 STENT CFB/N0364F170 T335 CORTA
Aircraft A319/M-SDE3FGHIRWY/LB1

Departure

Time 2026-05-07 15:49
Airport Ronald Reagan Washington National Airport (KDCA)

Arrival

Time 2026-05-07 16:36
Airport Syracuse Hancock International Airport (KSYR)
Time Latitude Longitude Altitude Speed Heading
2026-05-07 15:15 38.85558 -77.04219 27 ft 0 kts 338°
2026-05-07 15:37 38.85556 -77.04217 24 ft 2 kts 338°
2026-05-07 15:38 38.85535 -77.04209 26 ft 3 kts 355°
2026-05-07 15:38 38.85514 -77.04211 28 ft 3 kts 34°
2026-05-07 15:38 38.85503 -77.04227 26 ft 1 kts 72°
2026-05-07 15:38 38.85502 -77.04232 25 ft 0 kts 72°
2026-05-07 15:41 38.85503 -77.04227 26 ft 1 kts 72°
2026-05-07 15:41 38.85507 -77.04212 27 ft 2 kts 72°
2026-05-07 15:41 38.85512 -77.04193 27 ft 2 kts 72°
2026-05-07 15:42 38.85518 -77.04167 25 ft 4 kts 72°
2026-05-07 15:42 38.85527 -77.04132 25 ft 5 kts 72°
2026-05-07 15:42 38.85539 -77.04087 24 ft 6 kts 72°
2026-05-07 15:42 38.85553 -77.04033 24 ft 7 kts 72°
2026-05-07 15:43 38.85556 -77.03970 27 ft 7 kts 116°
2026-05-07 15:43 38.85508 -77.03952 24 ft 8 kts 174°
2026-05-07 15:43 38.85448 -77.03945 24 ft 9 kts 175°
2026-05-07 15:43 38.85380 -77.03939 24 ft 10 kts 176°
2026-05-07 15:44 38.85305 -77.03932 24 ft 11 kts 175°
2026-05-07 15:44 38.85222 -77.03924 24 ft 12 kts 175°
2026-05-07 15:44 38.85134 -77.03915 24 ft 13 kts 175°
2026-05-07 15:44 38.85040 -77.03905 24 ft 14 kts 175°
2026-05-07 15:45 38.84940 -77.03894 24 ft 15 kts 175°
2026-05-07 15:45 38.84834 -77.03883 24 ft 16 kts 176°
2026-05-07 15:45 38.84724 -77.03873 25 ft 16 kts 176°
2026-05-07 15:45 38.84611 -77.03862 25 ft 17 kts 176°
2026-05-07 15:46 38.84370 -77.03837 28 ft 15 kts 176°
2026-05-07 15:46 38.84281 -77.03829 25 ft 10 kts 174°
2026-05-07 15:46 38.84220 -77.03790 24 ft 11 kts 123°
2026-05-07 15:47 38.84183 -77.03706 24 ft 8 kts 118°
2026-05-07 15:47 38.84192 -77.03680 26 ft 3 kts 22°
2026-05-07 15:47 38.84204 -77.03682 26 ft 0 kts 355°
2026-05-07 15:48 38.84206 -77.03682 26 ft 2 kts 355°
2026-05-07 15:48 38.84298 -77.03692 24 ft 43 kts 355°
2026-05-07 15:48 38.84874 -77.03749 24 ft 119 kts 356°
2026-05-07 15:48 38.85864 -77.03840 384 ft 144 kts 356°
2026-05-07 15:49 38.86830 -77.03975 1217 ft 140 kts 343°
2026-05-07 15:49 38.87691 -77.04574 1899 ft 146 kts 324°
2026-05-07 15:49 38.88527 -77.05459 2369 ft 166 kts 322°
2026-05-07 15:49 38.89474 -77.06459 2825 ft 190 kts 322°
2026-05-07 15:50 38.90444 -77.07790 3310 ft 220 kts 303°
2026-05-07 15:50 38.91210 -77.09614 3943 ft 243 kts 300°
2026-05-07 15:50 38.92318 -77.11266 5002 ft 246 kts 324°
2026-05-07 15:50 38.93800 -77.12304 6269 ft 242 kts 326°
2026-05-07 15:51 38.95287 -77.13458 7022 ft 255 kts 319°
2026-05-07 15:51 38.96456 -77.15119 7979 ft 251 kts 297°
2026-05-07 15:51 38.97115 -77.17195 8893 ft 252 kts 278°
2026-05-07 15:51 38.97424 -77.19414 9926 ft 253 kts 276°
2026-05-07 15:52 38.97758 -77.21692 10573 ft 270 kts 276°
2026-05-07 15:52 38.98130 -77.24153 11050 ft 289 kts 276°
2026-05-07 15:52 38.98529 -77.26712 11836 ft 295 kts 277°
2026-05-07 15:52 38.98959 -77.29306 12747 ft 299 kts 280°
2026-05-07 15:53 38.99783 -77.31802 13645 ft 310 kts 294°
2026-05-07 15:53 39.01160 -77.34010 14451 ft 324 kts 307°
2026-05-07 15:53 39.02845 -77.35961 15246 ft 328 kts 308°
2026-05-07 15:53 39.04549 -77.37927 16047 ft 330 kts 308°
2026-05-07 15:54 39.06262 -77.39910 16837 ft 332 kts 307°
2026-05-07 15:54 39.08002 -77.41935 17628 ft 334 kts 306°
2026-05-07 15:54 39.09765 -77.43926 18384 ft 343 kts 310°
2026-05-07 15:54 39.11906 -77.45505 19024 ft 368 kts 325°
2026-05-07 15:55 39.14477 -77.46318 19735 ft 397 kts 342°
2026-05-07 15:55 39.17302 -77.46353 20383 ft 410 kts 348°
2026-05-07 15:55 39.20168 -77.46292 20993 ft 415 kts 347°
2026-05-07 15:55 39.23076 -77.46224 21584 ft 419 kts 347°
2026-05-07 15:56 39.26004 -77.46160 22163 ft 424 kts 346°
2026-05-07 15:56 39.28977 -77.46103 22746 ft 429 kts 346°
2026-05-07 15:56 39.31981 -77.46050 23310 ft 434 kts 346°
2026-05-07 15:56 39.35007 -77.45997 23806 ft 438 kts 345°
2026-05-07 15:57 39.38070 -77.45946 24347 ft 441 kts 345°
2026-05-07 15:57 39.41144 -77.45899 24834 ft 444 kts 345°
2026-05-07 15:57 39.44248 -77.45853 25265 ft 447 kts 345°
2026-05-07 15:57 39.47364 -77.45807 25712 ft 450 kts 344°
2026-05-07 15:58 39.50501 -77.45756 26168 ft 453 kts 345°
2026-05-07 15:58 39.53663 -77.45700 26604 ft 456 kts 345°
2026-05-07 15:58 39.56843 -77.45643 27002 ft 459 kts 344°
2026-05-07 15:58 39.60053 -77.45592 27477 ft 463 kts 343°
2026-05-07 15:59 39.63286 -77.45541 27875 ft 467 kts 343°
2026-05-07 15:59 39.66541 -77.45486 28294 ft 470 kts 343°
2026-05-07 15:59 39.69819 -77.45430 28711 ft 473 kts 343°
2026-05-07 15:59 39.72050 -77.45391 28996 ft 475 kts 343°
2026-05-07 16:00 39.76438 -77.45316 29525 ft 479 kts 343°
2026-05-07 16:00 39.78694 -77.45281 29790 ft 481 kts 343°
2026-05-07 16:00 39.82054 -77.45229 30190 ft 485 kts 343°
2026-05-07 16:00 39.85428 -77.45176 30511 ft 487 kts 343°
2026-05-07 16:01 39.88829 -77.45123 30846 ft 488 kts 343°
2026-05-07 16:01 39.92222 -77.45068 30968 ft 487 kts 343°
2026-05-07 16:01 39.95563 -77.44985 30994 ft 473 kts 343°
2026-05-07 16:02 40.02049 -77.44813 30994 ft 463 kts 342°
2026-05-07 16:02 40.08470 -77.44733 30986 ft 461 kts 341°
2026-05-07 16:03 40.14884 -77.44674 30986 ft 461 kts 341°
2026-05-07 16:03 40.21302 -77.44569 30986 ft 462 kts 342°
2026-05-07 16:04 40.27724 -77.44443 30979 ft 460 kts 341°
2026-05-07 16:04 40.34116 -77.44325 30959 ft 459 kts 341°
2026-05-07 16:05 40.40512 -77.44223 30948 ft 460 kts 341°
2026-05-07 16:05 40.46912 -77.44125 30983 ft 460 kts 341°
2026-05-07 16:06 40.53317 -77.44031 30948 ft 460 kts 341°
2026-05-07 16:06 40.59736 -77.43915 30944 ft 461 kts 341°
2026-05-07 16:07 40.66198 -77.43799 31030 ft 461 kts 341°
2026-05-07 16:07 40.72622 -77.43650 30947 ft 467 kts 345°
2026-05-07 16:07 40.75925 -77.43032 30940 ft 491 kts 355°
2026-05-07 16:08 40.79260 -77.42045 30950 ft 492 kts 355°
2026-05-07 16:08 40.85947 -77.40034 30945 ft 493 kts 356°
2026-05-07 16:09 40.92651 -77.38019 30972 ft 494 kts 356°
2026-05-07 16:09 40.99352 -77.36010 30959 ft 493 kts 356°
2026-05-07 16:10 41.06048 -77.34009 30952 ft 493 kts 356°
2026-05-07 16:10 41.12725 -77.32001 30954 ft 491 kts 357°
2026-05-07 16:11 41.19375 -77.29991 30940 ft 489 kts 356°
2026-05-07 16:11 41.26007 -77.27998 30935 ft 489 kts 356°
2026-05-07 16:12 41.32642 -77.25995 30987 ft 488 kts 358°
2026-05-07 16:12 41.39258 -77.23999 30976 ft 487 kts 358°
2026-05-07 16:13 41.45851 -77.22005 30917 ft 486 kts 356°
2026-05-07 16:13 41.52499 -77.19990 30975 ft 486 kts 358°
2026-05-07 16:14 41.59088 -77.17972 30970 ft 485 kts 358°
2026-05-07 16:14 41.62382 -77.16817 30966 ft 498 kts
2026-05-07 16:14 41.65603 -77.14878 30959 ft 519 kts 19°
2026-05-07 16:14 41.68592 -77.12033 30987 ft 537 kts 33°
2026-05-07 16:15 41.71167 -77.08334 30978 ft 548 kts 49°
2026-05-07 16:15 41.75316 -76.99736 30972 ft 550 kts 54°
2026-05-07 16:16 41.79419 -76.91108 30959 ft 549 kts 53°
2026-05-07 16:16 41.81478 -76.86786 30564 ft 549 kts 54°
2026-05-07 16:16 41.83547 -76.82442 29624 ft 555 kts 54°
2026-05-07 16:16 41.85617 -76.78084 28911 ft 554 kts 54°
2026-05-07 16:17 41.87676 -76.73726 28077 ft 553 kts 54°
2026-05-07 16:17 41.89723 -76.69374 27334 ft 549 kts 54°
2026-05-07 16:17 41.91756 -76.65039 26588 ft 546 kts 54°
2026-05-07 16:17 41.93765 -76.60757 26070 ft 538 kts 54°
2026-05-07 16:18 41.95748 -76.56536 25441 ft 532 kts 54°
2026-05-07 16:18 41.97712 -76.52358 24857 ft 526 kts 54°
2026-05-07 16:18 41.99650 -76.48230 24295 ft 519 kts 54°
2026-05-07 16:18 42.01553 -76.44167 24008 ft 506 kts 54°
2026-05-07 16:19 42.03396 -76.40215 23923 ft 491 kts 54°
2026-05-07 16:19 42.05203 -76.36336 23953 ft 488 kts 54°
2026-05-07 16:19 42.07003 -76.32474 23706 ft 486 kts 54°
2026-05-07 16:19 42.08818 -76.28582 22670 ft 494 kts 54°
2026-05-07 16:20 42.10663 -76.24614 21990 ft 492 kts 55°
2026-05-07 16:20 42.12507 -76.20756 21436 ft 485 kts 50°
2026-05-07 16:20 42.14754 -76.17469 20941 ft 470 kts 34°
2026-05-07 16:20 42.17375 -76.15016 20304 ft 449 kts 20°
2026-05-07 16:21 42.20188 -76.13463 19505 ft 427 kts
2026-05-07 16:21 42.23033 -76.12775 18706 ft 406 kts 354°
2026-05-07 16:21 42.25829 -76.12475 17825 ft 402 kts 354°
2026-05-07 16:21 42.28612 -76.12165 17275 ft 399 kts 355°
2026-05-07 16:22 42.31349 -76.11844 16571 ft 391 kts 355°
2026-05-07 16:22 42.34045 -76.11519 15684 ft 386 kts 356°
2026-05-07 16:22 42.36693 -76.11203 14844 ft 380 kts 356°
2026-05-07 16:22 42.39301 -76.10893 14259 ft 369 kts 356°
2026-05-07 16:23 42.41828 -76.10592 13837 ft 363 kts 357°
2026-05-07 16:23 42.44333 -76.10303 13366 ft 358 kts 357°
2026-05-07 16:23 42.46795 -76.10021 12925 ft 352 kts 357°
2026-05-07 16:23 42.49217 -76.09744 12483 ft 347 kts 357°
2026-05-07 16:24 42.51605 -76.09469 12037 ft 342 kts 357°
2026-05-07 16:24 42.53961 -76.09196 11600 ft 338 kts 357°
2026-05-07 16:24 42.56292 -76.08924 11154 ft 334 kts 357°
2026-05-07 16:24 42.58596 -76.08654 10728 ft 330 kts 358°
2026-05-07 16:25 42.60863 -76.08386 10321 ft 325 kts 358°
2026-05-07 16:25 42.63067 -76.08119 10193 ft 311 kts 358°
2026-05-07 16:25 42.65184 -76.07865 10039 ft 299 kts 358°
2026-05-07 16:25 42.67214 -76.07607 9921 ft 288 kts
2026-05-07 16:26 42.69186 -76.07035 9755 ft 282 kts
2026-05-07 16:26 42.71073 -76.06427 9481 ft 277 kts
2026-05-07 16:26 42.72945 -76.05823 9116 ft 275 kts
2026-05-07 16:26 42.74170 -76.05426 8830 ft 275 kts
2026-05-07 16:27 42.76665 -76.04619 8364 ft 272 kts
2026-05-07 16:27 42.78495 -76.04023 7973 ft 269 kts
2026-05-07 16:27 42.80303 -76.03434 7624 ft 266 kts
2026-05-07 16:27 42.82093 -76.02850 7307 ft 263 kts
2026-05-07 16:28 42.83855 -76.02272 6984 ft 259 kts
2026-05-07 16:28 42.85605 -76.01701 6689 ft 256 kts
2026-05-07 16:28 42.87293 -76.01150 6562 ft 244 kts
2026-05-07 16:28 42.88905 -76.00619 6440 ft 233 kts
2026-05-07 16:29 42.90479 -76.00103 5984 ft 235 kts
2026-05-07 16:29 42.92064 -75.99590 5541 ft 232 kts
2026-05-07 16:29 42.93619 -75.99087 5246 ft 229 kts
2026-05-07 16:29 42.95165 -75.98587 4972 ft 227 kts
2026-05-07 16:30 42.96696 -75.98089 4697 ft 225 kts
2026-05-07 16:30 42.98209 -75.97596 4413 ft 223 kts
2026-05-07 16:30 42.99710 -75.97105 4140 ft 221 kts
2026-05-07 16:30 43.01196 -75.96620 3874 ft 217 kts
2026-05-07 16:31 43.02640 -75.96147 3612 ft 210 kts
2026-05-07 16:31 43.04039 -75.95690 3360 ft 203 kts
2026-05-07 16:31 43.05362 -75.95264 3150 ft 190 kts
2026-05-07 16:31 43.06635 -75.95123 2900 ft 177 kts 354°
2026-05-07 16:32 43.07821 -75.95328 2682 ft 168 kts 342°
2026-05-07 16:32 43.08563 -75.95629 2550 ft 162 kts 336°
2026-05-07 16:32 43.09759 -75.96595 2295 ft 139 kts 317°
2026-05-07 16:32 43.10380 -75.97499 2120 ft 123 kts 304°
2026-05-07 16:33 43.10694 -75.98164 2007 ft 122 kts 298°
2026-05-07 16:33 43.11019 -75.99219 1856 ft 119 kts 287°
2026-05-07 16:33 43.11179 -76.00318 1697 ft 118 kts 277°
2026-05-07 16:33 43.11180 -76.01446 1533 ft 119 kts 270°
2026-05-07 16:34 43.11143 -76.02568 1371 ft 117 kts 270°
2026-05-07 16:34 43.11107 -76.03694 1211 ft 119 kts 270°
2026-05-07 16:34 43.11072 -76.04825 1045 ft 119 kts 270°
2026-05-07 16:34 43.11034 -76.05959 887 ft 125 kts 268°
2026-05-07 16:35 43.10997 -76.07136 729 ft 122 kts 270°
2026-05-07 16:35 43.10947 -76.08297 602 ft 121 kts 269°
2026-05-07 16:35 43.10921 -76.09435 449 ft 119 kts 270°
2026-05-07 16:35 43.10893 -76.10415 425 ft 82 kts 268°
2026-05-07 16:36 43.10874 -76.11031 428 ft 54 kts 268°
2026-05-07 16:36 43.10872 -76.11304 423 ft 11 kts 297°
2026-05-07 16:36 43.10942 -76.11362 421 ft 10 kts 336°
2026-05-07 16:36 43.10987 -76.11318 417 ft 10 kts 85°
2026-05-07 16:37 43.10991 -76.11218 425 ft 11 kts 88°
2026-05-07 16:37 43.10995 -76.11110 425 ft 12 kts 87°
2026-05-07 16:37 43.10997 -76.10993 425 ft 13 kts 88°
2026-05-07 16:37 43.11001 -76.10867 425 ft 12 kts 86°
2026-05-07 16:38 43.11052 -76.10818 418 ft 11 kts 357°
2026-05-07 16:38 43.11132 -76.10823 421 ft 12 kts 357°
2026-05-07 16:38 43.11224 -76.10815 421 ft 14 kts
2026-05-07 16:38 43.11325 -76.10820 421 ft 15 kts 355°
2026-05-07 16:39 43.11400 -76.10846 418 ft 10 kts 297°
2026-05-07 16:39 43.11386 -76.10919 417 ft 8 kts 212°
2026-05-07 16:39 43.11358 -76.10931 418 ft 3 kts 197°
2026-05-07 16:39 43.11348 -76.10935 422 ft 0 kts 197°